TimePST,TemperatureF,Dew PointF,Humidity,Sea Level PressureIn,VisibilityMPH,Wind Direction,Wind SpeedMPH,Gust SpeedMPH,PrecipitationIn,Events,Conditions,WindDirDegrees,DateUTC
12:54 AM,42.1,35.1,76,30.11,10.0,ENE,4.6,-,N/A,,Clear,70,2013-02-11 08:54:00
1:54 AM,39.9,33.1,77,30.12,10.0,ENE,3.5,-,N/A,,Clear,70,2013-02-11 09:54:00
2:54 AM,39.0,33.1,79,30.12,10.0,East,6.9,-,N/A,,Clear,90,2013-02-11 10:54:00
3:54 AM,37.9,33.1,83,30.12,10.0,East,8.1,-,N/A,,Clear,100,2013-02-11 11:54:00
4:54 AM,37.9,33.1,83,30.13,10.0,Calm,Calm,-,N/A,,Clear,0,2013-02-11 12:54:00
5:54 AM,39.9,33.1,77,30.15,10.0,Calm,Calm,-,N/A,,Clear,0,2013-02-11 13:54:00
6:54 AM,37.0,32.0,82,30.17,10.0,East,4.6,-,N/A,,Clear,100,2013-02-11 14:54:00
7:54 AM,39.9,34.0,79,30.19,10.0,East,3.5,-,N/A,,Clear,100,2013-02-11 15:54:00
8:54 AM,48.9,37.9,66,30.21,10.0,East,3.5,-,N/A,,Clear,80,2013-02-11 16:54:00
9:54 AM,52.0,37.9,59,30.22,10.0,WNW,3.5,-,N/A,,Clear,290,2013-02-11 17:54:00
10:54 AM,55.0,39.9,57,30.24,10.0,Variable,3.5,-,N/A,,Clear,0,2013-02-11 18:54:00
11:54 AM,55.9,37.9,51,30.22,10.0,West,9.2,-,N/A,,Clear,270,2013-02-11 19:54:00
12:54 PM,57.0,37.0,47,30.22,10.0,WNW,5.8,-,N/A,,Clear,290,2013-02-11 20:54:00
1:54 PM,57.9,34.0,41,30.21,10.0,West,5.8,-,N/A,,Clear,280,2013-02-11 21:54:00
2:54 PM,57.0,33.1,40,30.21,10.0,NW,6.9,-,N/A,,Clear,320,2013-02-11 22:54:00
3:54 PM,57.9,37.0,46,30.21,10.0,WNW,5.8,-,N/A,,Clear,300,2013-02-11 23:54:00
4:54 PM,57.0,36.0,45,30.22,10.0,SSW,4.6,-,N/A,,Clear,210,2013-02-12 00:54:00
5:54 PM,53.1,32.0,45,30.23,10.0,WSW,4.6,-,N/A,,Clear,240,2013-02-12 01:54:00
6:54 PM,50.0,37.9,63,30.26,10.0,South,3.5,-,N/A,,Clear,190,2013-02-12 02:54:00
7:54 PM,48.0,39.0,71,30.27,10.0,Calm,Calm,-,N/A,,Clear,0,2013-02-12 03:54:00
8:54 PM,46.9,39.0,74,30.28,10.0,SSE,4.6,-,N/A,,Clear,160,2013-02-12 04:54:00
9:54 PM,48.0,35.1,61,30.29,10.0,SE,5.8,-,N/A,,Clear,140,2013-02-12 05:54:00
10:54 PM,48.9,32.0,52,30.29,10.0,SSE,5.8,-,N/A,,Clear,150,2013-02-12 06:54:00
11:54 PM,46.9,32.0,56,30.29,10.0,Calm,Calm,-,N/A,,Clear,0,2013-02-12 07:54:00